FW0892 Weather Reports


time (UTC)temp
F
wind
direction
speed
knots
gust
knots
rain 1hr
in
rain 24hr
in
rain mn
in
humidity
%
barometer
mb
20190617203526 93 166 0.0 3.5 0.00 0.00 0.00 52 1015.8
20190617202526 93 131 0.0 6.1 0.00 0.00 0.00 52 1015.8
20190617201521 93 154 0.0 1.7 0.00 0.00 0.00 49 1015.9
20190617200522 92 173 0.0 1.7 0.00 0.00 0.00 50 1015.9
20190617195527 92 160 0.0 6.1 0.00 0.00 0.00 51 1016.0
20190617194527 92 174 0.0 6.1 0.00 0.00 0.00 50 1016.4
20190617193523 93 161 0.0 6.1 0.00 0.00 0.00 51 1016.7
20190617192526 93 204 0.0 3.5 0.00 0.00 0.00 51 1017.0
20190617191522 92 198 0.0 1.7 0.00 0.00 0.00 51 1017.0
20190617190524 91 199 0.0 3.5 0.00 0.00 0.00 50 1017.1
20190617185521 91 181 0.0 1.7 0.00 0.00 0.00 50 1017.2
20190617184521 91 217 0.0 1.7 0.00 0.00 0.00 51 1017.3
20190617183520 91 0.0 0.0 0.00 0.00 0.00 52 1017.5
20190617182521 91 175 0.0 6.1 0.00 0.00 0.00 51 1017.7
20190617181520 91 195 0.0 3.5 0.00 0.00 0.00 52 1017.7
20190617180518 91 182 0.0 3.5 0.00 0.00 0.00 51 1017.7
20190617175519 90 201 0.0 1.7 0.00 0.00 0.00 51 1017.9
20190617174530 90 216 0.0 1.7 0.00 0.00 0.00 53 1018.0
20190617173515 90 206 0.0 1.7 0.00 0.00 0.00 55 1018.1
20190617172517 90 0.0 0.0 0.00 0.00 0.00 56 1018.4
20190617171528 91 160 0.0 1.7 0.00 0.00 0.00 52 1018.6
20190617170526 91 198 0.0 1.7 0.00 0.00 0.00 53 1018.7
20190617165520 90 0.0 0.0 0.00 0.00 0.00 52 1018.9
20190617164520 89 0.0 0.0 0.00 0.00 0.00 55 1019.0
20190617163522 89 0.0 0.0 0.00 0.00 0.00 55 1019.3
20190617162519 90 0.0 0.0 0.00 0.00 0.00 61 1019.4
20190617161518 90 0.0 0.0 0.00 0.00 0.00 58 1019.4
20190617160530 90 0.0 0.0 0.00 0.00 0.00 55 1019.7
20190617155528 90 0.0 0.0 0.00 0.00 0.00 56 1019.7
20190617154526 89 0.0 0.0 0.00 0.00 0.00 56 1020.0
20190617153527 89 0.0 0.0 0.00 0.00 0.00 58 1020.1
20190617152525 88 0.0 0.0 0.00 0.00 0.00 58 1020.4
20190617151526 88 0.0 0.0 0.00 0.00 0.00 60 1020.4
20190617150525 87 0.0 0.0 0.00 0.00 0.00 60 1020.4
20190617145525 86 0.0 0.0 0.00 0.00 0.00 62 1020.4
20190617144524 84 0.0 0.0 0.00 0.00 0.00 65 1020.4
20190617143522 83 0.0 0.0 0.00 0.00 0.00 68 1020.4
20190617142523 82 0.0 0.0 0.00 0.00 0.00 69 1020.8
20190617141520 81 0.0 0.0 0.00 0.00 0.00 71 1020.8
20190617140520 79 0.0 0.0 0.00 0.00 0.00 74 1021.1
20190617135517 78 0.0 0.0 0.00 0.00 0.00 81 1021.1
20190617134525 77 0.0 0.0 0.00 0.00 0.00 83 1021.4
20190617133525 76 0.0 0.0 0.00 0.00 0.00 84 1021.5
20190617132524 75 0.0 0.0 0.00 0.00 0.00 86 1021.4
20190617131520 74 0.0 0.0 0.00 0.00 0.00 89 1021.3
20190617130519 73 0.0 0.0 0.00 0.00 0.00 91 1021.1
20190617125517 73 0.0 0.0 0.00 0.00 0.00 92 1020.9
20190617124529 72 0.0 0.0 0.00 0.00 0.00 92 1021.1
20190617123528 71 0.0 0.0 0.00 0.00 0.00 94 1021.4
20190617122519 70 0.0 0.0 0.00 0.00 0.00 96 1021.4
20190617121517 69 0.0 0.0 0.00 0.00 0.00 98 1021.1
20190617120524 69 0.0 0.0 0.00 0.00 0.00 99 1021.0
20190617115522 68 0.0 0.0 0.00 0.00 0.00 99 1020.8
20190617114518 68 0.0 0.0 0.00 0.00 0.00 99 1020.7
20190617113526 67 0.0 0.0 0.00 0.00 0.00 99 1020.4
20190617112528 67 0.0 0.0 0.00 0.00 0.00 99 1020.4
20190617111527 67 0.0 0.0 0.00 0.00 0.00 99 1020.4
20190617110517 67 0.0 0.0 0.00 0.00 0.00 99 1020.2
20190617105528 67 0.0 0.0 0.00 0.00 0.00 99 1020.2
20190617104524 67 0.0 0.0 0.00 0.00 0.00 99 1019.9
20190617103518 67 0.0 0.0 0.00 0.00 0.00 99 1019.7
20190617102521 68 0.0 0.0 0.00 0.00 0.00 99 1019.4
20190617101529 68 0.0 0.0 0.00 0.00 0.00 99 1019.4
20190617100525 68 0.0 0.0 0.00 0.00 0.00 99 1019.4
20190617095517 68 0.0 0.0 0.00 0.00 0.00 98 1019.4
20190617094527 68 0.0 0.0 0.00 0.00 0.00 99 1019.1
20190617093528 68 0.0 0.0 0.00 0.00 0.00 98 1019.0
20190617092525 68 0.0 0.0 0.00 0.00 0.00 98 1018.7
20190617091518 69 0.0 0.0 0.00 0.00 0.00 98 1018.7
20190617090523 69 0.0 0.0 0.00 0.00 0.00 97 1018.4
20190617085520 69 0.0 0.0 0.00 0.00 0.00 98 1018.4
20190617084520 69 0.0 0.0 0.00 0.00 0.00 98 1018.0
20190617083517 69 0.0 0.0 0.00 0.00 0.00 98 1017.9
20190617082530 69 0.0 0.0 0.00 0.00 0.00 98 1018.0
20190617081521 69 0.0 0.0 0.00 0.00 0.00 99 1018.0
20190617080519 69 0.0 0.0 0.00 0.00 0.00 99 1017.9
20190617075531 69 0.0 0.0 0.00 0.00 0.00 99 1017.9
20190617074527 69 0.0 0.0 0.00 0.00 0.00 98 1017.9
20190617073524 69 0.0 0.0 0.00 0.00 0.00 98 1017.7
20190617072518 69 0.0 0.0 0.00 0.00 0.00 97 1017.7
20190617071528 69 0.0 0.0 0.00 0.00 0.00 98 1017.6
20190617070527 69 0.0 0.0 0.00 0.00 0.00 99 1017.4
20190617065519 69 0.0 0.0 0.00 0.00 0.00 99 1017.2
20190617064517 69 0.0 0.0 0.00 0.00 0.00 99 1017.4
20190617063529 69 0.0 0.0 0.00 0.00 0.00 99 1017.5
20190617062529 70 0.0 0.0 0.00 0.00 0.00 99 1017.7
20190617061525 70 0.0 0.0 0.00 0.00 0.00 99 1017.7
20190617060529 70 0.0 0.0 0.00 0.00 0.00 99 1017.7
20190617055528 70 0.0 0.0 0.00 0.00 0.00 99 1017.7
20190617054524 70 0.0 0.0 0.00 0.00 0.00 98 1017.9
20190617053530 70 0.0 0.0 0.00 0.00 0.00 98 1017.7
20190617052527 70 0.0 0.0 0.00 0.00 0.00 98 1017.8
20190617051526 71 0.0 0.0 0.00 0.00 0.00 98 1018.0
20190617050520 71 0.0 0.0 0.00 0.00 0.00 97 1018.0
20190617045517 71 0.0 0.0 0.00 0.00 0.00 96 1017.8
20190617044527 71 0.0 0.0 0.00 0.00 0.00 96 1017.8
20190617043519 71 0.0 0.0 0.00 0.00 0.00 95 1017.9
20190617042517 72 0.0 0.0 0.00 0.00 0.00 96 1017.7
20190617041523 72 0.0 0.0 0.00 0.00 0.00 96 1017.7
20190617040517 72 0.0 0.0 0.00 0.00 0.00 94 1017.7
20190617035527 72 0.0 0.0 0.00 0.00 0.00 94 1017.7
20190617034526 72 0.0 0.0 0.00 0.00 0.00 95 1017.7
20190617033519 73 0.0 0.0 0.00 0.00 0.00 94 1017.7
20190617032526 73 0.0 0.0 0.00 0.00 0.00 93 1017.7
20190617031522 73 0.0 0.0 0.00 0.00 0.00 92 1017.7
20190617030530 74 0.0 0.0 0.00 0.00 0.00 91 1017.7
20190617025524 74 0.0 0.0 0.00 0.00 0.00 90 1017.7
20190617024521 74 0.0 0.0 0.00 0.00 0.00 91 1017.3
20190617023531 75 0.0 0.0 0.00 0.00 0.00 91 1017.3
20190617022527 75 0.0 0.0 0.00 0.00 0.00 91 1017.3
20190617021520 76 0.0 0.0 0.00 0.00 0.00 90 1017.1
20190617020517 76 0.0 0.0 0.00 0.00 0.00 87 1017.0
20190617015518 77 0.0 0.0 0.00 0.00 0.00 86 1016.9
20190617014526 77 0.0 0.0 0.00 0.00 0.00 85 1017.0
20190617013523 78 0.0 0.0 0.00 0.00 0.00 83 1016.6
20190617012517 79 0.0 0.0 0.00 0.00 0.00 82 1016.3
20190617011526 79 0.0 0.0 0.00 0.00 0.00 81 1015.9
20190617010524 80 0.0 0.0 0.00 0.00 0.00 79 1015.9
20190617005521 81 0.0 0.0 0.00 0.00 0.00 78 1015.8
20190617004527 82 0.0 0.0 0.00 0.00 0.00 76 1015.2
20190617003526 83 0.0 0.0 0.00 0.00 0.00 73 1015.2
20190617002520 84 0.0 0.0 0.00 0.00 0.00 71 1015.2
20190617001520 85 0.0 0.0 0.00 0.00 0.00 67 1015.2
20190617000520 86 0.0 0.0 0.00 0.00 0.00 65 1015.2
20190616235523 87 0.0 0.0 0.00 0.00 0.00 62 1015.2
20190616234522 88 0.0 0.0 0.00 0.00 0.00 60 1015.2
20190616233520 89 0.0 0.0 0.00 0.00 0.00 57 1015.0
20190616232518 90 0.0 0.0 0.00 0.00 0.00 54 1015.2
20190616231517 90 0.0 0.0 0.00 0.00 0.00 52 1015.2
20190616230516 90 0.0 0.0 0.00 0.00 0.00 52 1015.2
20190616225528 91 0.0 0.0 0.00 0.00 0.00 51 1015.2
20190616224526 91 185 0.0 1.7 0.00 0.00 0.00 50 1015.2
20190616223522 91 200 0.0 3.5 0.00 0.00 0.00 50 1015.2
20190616222520 91 134 0.0 6.1 0.00 0.00 0.00 49 1015.2
20190616221517 91 186 0.0 3.5 0.00 0.00 0.00 49 1015.2
20190616220525 91 135 0.0 1.7 0.00 0.00 0.00 50 1015.5
20190616215518 92 0.0 0.0 0.00 0.00 0.00 50 1015.9
20190616214517 92 162 0.0 1.7 0.00 0.00 0.00 49 1015.9
20190616213530 93 190 0.0 3.5 0.00 0.00 0.00 49 1015.9
20190616212527 94 184 0.0 1.7 0.00 0.00 0.00 47 1015.9
20190616211519 93 199 0.0 1.7 0.00 0.00 0.00 46 1015.9
20190616210518 93 212 0.0 3.5 0.00 0.00 0.00 47 1015.9
20190616205519 92 167 0.0 1.7 0.00 0.00 0.00 48 1015.9
20190616204525 92 165 0.0 6.1 0.00 0.00 0.00 48 1015.9